Погода в Румянцево

Россия / Московская область     55˚38′02″N   37˚25′31″E
темп.,
°C
ветер,
м/с
пор.,
м/с
влажн.,
%
обл.,
%
осадки,
мм/ч
давл.,
гПа
погр.,
м
18 января, пн
пн1800:00−24˚с12980 0.0 102020
03:00−24˚ссз019934 0.0 102020
06:00−24˚зюз119998 0.0 102020
09:00−24˚сз119966 0.0 102020
12:00−19˚зюз019573 0.0 102077
15:00−19˚зюз009687 0.0 101920
18:00−20˚зсз1196100 0.0 101920
21:00−20˚юз1195100 0.0 101920
19 января, вт
вт1900:00−19˚з1194100 0.0 101920
03:00−19˚зсз1193100 0.0 101920
06:00−18˚зсз1193100 0.0 101820
09:00−18˚зсз1192100 0.0 101820
12:00−15˚зсз1292100 0.0 1017169
15:00−14˚з1294100 0.0 1017199
18:00−15˚зсз1296100 0.1 101728
21:00−15˚сз1296100 0.2 101728
20 января, ср
ср2000:00−15˚сз229692 0.1 101828
03:00−18˚зсз129784 0.1 101820
06:00−18˚зсз239790 0.0 101924
09:00−17˚зсз239787 0.1 102042
12:00−14˚з239676 0.0 1020133
15:00−13˚з239664 0.0 1020130
18:00−16˚зюз23960 0.0 102229
21:00−17˚юз23960 0.0 102238
21 января, чт
чт2100:00−18˚юз33960 0.0 102267
03:00−18˚ююз379340 0.0 1021142
06:00−17˚ююз4108985 0.0 1019246
09:00−14˚ю5138992 0.0 1016364
12:00−9˚ююз61494100 0.4 1014563
15:00−7˚юз61392100 1.1 1011621
18:00−6˚юз61489100 0.1 1010541
21:00−4˚юз61591100 0.1 1008518
22 января, пт
пт2200:00−1˚зюз71591100 0.1 1007662
03:00зюз71491100 0.1 1008756
06:00зюз61391100 0.0 1008668
09:00зюз51193100 0.0 1008702
12:00+1˚зюз31099100 0.0 1010536
15:00+1˚зюз4899100 0.0 1010361
18:00юз3695100 0.0 1011264
21:00ю3697100 0.0 1011274